Regional Weather Roundup
Issued by NWS Sioux Falls, SD

Home | Current Version | Previous Version | Graphics & Text | Print | Product List | Glossary Off
Versions: 1 2 3 4 5 6 7 8 9 10 11 12 13 14 15 16 17 18 19 20 21 22 23 24 25 26 27 28 29 30 31 32 33 34 35 36 37 38 39 40 41 42 43 44 45 46 47 48 49 50

000
ASUS43 KFSD 251802
RWRFSD

WEATHER ROUNDUP FOR SE SOUTH DAKOTA/SW MINNESOTA/NW IOWA
NATIONAL WEATHER SERVICE SIOUX FALLS SD
100 PM CDT MON SEP 25 2017

NOTE: "FAIR" INDICATES FEW OR NO CLOUDS BELOW 12,000 FEET WITH NO
SIGNIFICANT WEATHER AND OR OBSTRUCTIONS TO VISIBILITY.


SDZ038>040-050-052>070-251900-
SOUTHEAST SOUTH DAKOTA

CITY           SKY/WX    TMP DP  RH WIND       PRES   REMARKS
BROOKINGS      CLOUDY    52  48  86 NE10      30.06F
CHAMBERLAIN    CLOUDY    53  48  84 N9        30.10F
6HR MIN TEMP:  50; 6HR MAX TEMP:  53; 6HR PCP:  0.01;

HURON          CLOUDY    53  48  83 N10       30.09S
6HR MIN TEMP:  50; 6HR MAX TEMP:  53; 6HR PCP: TRACE;

MADISON        CLOUDY    50  50 100 NE8       30.06F
MITCHELL       CLOUDY    54  50  86 N9        30.08S
6HR MIN TEMP:  50; 6HR MAX TEMP:  54; 6HR PCP: TRACE;

SIOUX FALLS    CLOUDY    55  53  93 N14       30.04S
6HR MIN TEMP:  53; 6HR MAX TEMP:  56; 6HR PCP: TRACE;

WINNER         CLOUDY    52  47  83 N12       30.10F
YANKTON        HVY RAIN  53  52  96 N9        30.04S
$$

MNZ071-072-080-081-089-090-097-098-251900-
SOUTHWEST MINNESOTA

CITY           SKY/WX    TMP DP  RH WIND       PRES   REMARKS
FAIRMONT       CLOUDY    57  55  93 N13       30.00F
JACKSON        CLOUDY    54  54 100 N7        30.02S
LUVERNE        CLOUDY    54  48  82 NE10      30.03F
MARSHALL       CLOUDY    55  50  83 N8        30.06S
6HR MIN TEMP:  50; 6HR MAX TEMP:  55; 6HR PCP:  0.23;

MONTEVIDEO     CLOUDY    57  54  88 CALM      30.06S
PIPESTONE      LGT RAIN  54  52  94 NE8G17    30.04F
REDWOOD FALLS  CLOUDY    59  52  77 N8        30.03F
TRACY          CLOUDY    54  52  92 N10       30.05F
WORTHINGTON    CLOUDY    53  51  93 N12       30.03S FOG
$$

IAZ001>003-012>014-020>022-031-032-NEZ013-014-SDZ071-251900-
NORTHWEST IOWA

CITY           SKY/WX    TMP DP  RH WIND       PRES   REMARKS
CHEROKEE       LGT RAIN  57  57 100 N7        30.00S
DENISON        HVY RAIN  66  66 100 VRB6      29.99R VSB 1/2
ESTHERVILLE    CLOUDY    57  56  96 N12       30.00S
LE MARS        RAIN      55  55 100 N10       30.01R
ORANGE CITY    RAIN      55  55 100 NE9       30.00F
SHELDON        CLOUDY    55  54  94 N12       30.01S FOG
SIOUX CITY     LGT RAIN  58  57  97 N10       29.98F
6HR MIN TEMP:  56; 6HR MAX TEMP:  58; 6HR PCP:  0.34;

SPENCER        LGT RAIN  57  55  93 N8        30.00F
6HR MIN TEMP:  55; 6HR MAX TEMP:  58; 6HR PCP:  0.28;

STORM LAKE     PTSUNNY   59  57  94 N9        29.98S
$$

ABBREVIATIONS USED IN REMARKS
   TC - TEMPERATURE IN CELSIUS
  WCI - WIND CHILL INDEX
   HX - HEAT INDEX
  VSB - VISIBILITY





USA.gov is the U.S. government's official web portal to all federal, state and local government web resources and services.